TimeEDT,TemperatureF,Dew PointF,Humidity,Sea Level PressureIn,VisibilityMPH,Wind Direction,Wind SpeedMPH,Gust SpeedMPH,PrecipitationIn,Events,Conditions,WindDirDegrees,DateUTC
12:54 AM,46.0,39.9,79,29.92,10.0,Calm,Calm,-,N/A,,Clear,0,2012-10-17 04:54:00
1:54 AM,45.0,39.0,80,29.94,10.0,NW,3.5,-,N/A,,Clear,320,2012-10-17 05:54:00
2:54 AM,44.1,37.9,79,29.95,10.0,NNW,5.8,-,N/A,,Clear,340,2012-10-17 06:54:00
3:54 AM,45.0,39.0,80,29.94,10.0,NW,3.5,-,N/A,,Clear,320,2012-10-17 07:54:00
4:54 AM,44.1,37.9,79,29.96,10.0,NW,4.6,-,N/A,,Clear,320,2012-10-17 08:54:00
5:54 AM,45.0,37.9,76,29.97,10.0,NW,4.6,-,N/A,,Clear,320,2012-10-17 09:54:00
6:54 AM,46.0,39.0,76,29.98,10.0,NNW,4.6,-,N/A,,Mostly Cloudy,340,2012-10-17 10:54:00
7:54 AM,48.0,41.0,77,29.99,10.0,Calm,Calm,-,N/A,,Overcast,0,2012-10-17 11:54:00
8:54 AM,54.0,42.1,64,30.01,10.0,NW,3.5,-,N/A,,Overcast,320,2012-10-17 12:54:00
9:54 AM,60.1,42.1,51,30.03,10.0,NNW,3.5,-,N/A,,Clear,340,2012-10-17 13:54:00
10:54 AM,63.0,39.9,43,30.03,10.0,Variable,4.6,-,N/A,,Clear,0,2012-10-17 14:54:00
11:54 AM,64.9,41.0,42,30.02,10.0,SSW,4.6,-,N/A,,Overcast,200,2012-10-17 15:54:00
12:54 PM,64.9,41.0,42,30.00,10.0,Calm,Calm,-,N/A,,Overcast,0,2012-10-17 16:54:00
1:54 PM,64.9,42.1,43,29.99,10.0,South,5.8,-,N/A,,Overcast,190,2012-10-17 17:54:00
2:54 PM,64.9,44.1,47,29.97,10.0,South,9.2,-,N/A,,Mostly Cloudy,190,2012-10-17 18:54:00
3:54 PM,64.9,45.0,48,29.96,10.0,SSW,6.9,-,N/A,,Overcast,200,2012-10-17 19:54:00
4:54 PM,64.0,45.0,50,29.97,10.0,South,8.1,-,N/A,,Clear,190,2012-10-17 20:54:00
5:54 PM,62.1,46.0,56,29.98,10.0,South,6.9,-,N/A,,Clear,190,2012-10-17 21:54:00
6:54 PM,59.0,45.0,60,29.98,10.0,South,6.9,-,N/A,,Clear,190,2012-10-17 22:54:00
7:54 PM,55.9,46.0,69,29.99,10.0,South,5.8,-,N/A,,Clear,190,2012-10-17 23:54:00
8:54 PM,55.9,46.0,69,29.99,10.0,SSW,4.6,-,N/A,,Clear,200,2012-10-18 00:54:00
9:54 PM,57.9,46.0,65,30.00,10.0,South,9.2,-,N/A,,Clear,180,2012-10-18 01:54:00
10:54 PM,59.0,46.0,62,29.99,10.0,South,8.1,-,N/A,,Clear,180,2012-10-18 02:54:00
11:54 PM,59.0,46.0,62,29.99,10.0,South,9.2,-,N/A,,Clear,190,2012-10-18 03:54:00